| time (UTC) | temp F | wind direction | speed knots | gust knots | rain 1hr in | rain 24hr in | rain mn in | humidity % | barometer mb |
| 20260504204531 | 56 | 180 | 12.2 | 20.9 | 0.00 | 0.00 | 0.00 | 32 | 1015.8 |
| 20260504203043 | 55 | 180 | 7.0 | 23.5 | 0.00 | 0.00 | 0.00 | 33 | 1015.8 |
| 20260504201528 | 56 | 180 | 10.4 | 18.2 | 0.00 | 0.00 | 0.00 | 31 | 1015.9 |
| 20260504200029 | 55 | 180 | 11.3 | 18.2 | 0.00 | 0.00 | 0.00 | 33 | 1015.7 |
| 20260504194537 | 55 | 180 | 10.4 | 20.9 | 0.00 | 0.00 | 0.00 | 32 | 1015.8 |
| 20260504193032 | 55 | 180 | 8.7 | 18.2 | 0.00 | 0.00 | 0.00 | 32 | 1015.9 |
| 20260504191537 | 55 | 180 | 11.3 | 18.2 | 0.00 | 0.00 | 0.00 | 32 | 1016.1 |
| 20260504190030 | 55 | 180 | 11.3 | 18.2 | 0.00 | 0.00 | 0.00 | 35 | 1016.1 |
| 20260504184531 | 55 | 180 | 10.4 | 20.0 | 0.00 | 0.00 | 0.00 | 34 | 1016.2 |
| 20260504183028 | 54 | 180 | 13.0 | 18.2 | 0.00 | 0.00 | 0.00 | 36 | 1016.3 |
| 20260504181537 | 54 | 180 | 7.0 | 19.1 | 0.00 | 0.00 | 0.00 | 38 | 1016.3 |
| 20260504180035 | 54 | 180 | 9.6 | 16.5 | 0.00 | 0.00 | 0.00 | 38 | 1016.1 |
| 20260504174528 | 55 | 180 | 8.7 | 15.6 | 0.00 | 0.00 | 0.00 | 40 | 1016.3 |
| 20260504173034 | 54 | 180 | 10.4 | 14.8 | 0.00 | 0.00 | 0.00 | 42 | 1016.4 |
| 20260504171533 | 53 | 180 | 8.7 | 15.6 | 0.00 | 0.00 | 0.00 | 45 | 1016.4 |
| 20260504081530 | 50 | 180 | 2.6 | 16.5 | 0.00 | 0.00 | 0.00 | 48 | 1016.4 |
| 20260504044526 | 54 | 180 | 2.6 | 4.3 | 0.00 | 0.01 | 0.00 | 40 | 1010.4 |
| 20260504043028 | 54 | 180 | 0.9 | 2.6 | 0.00 | 0.01 | 0.00 | 38 | 1009.9 |
| 20260504041531 | 56 | 180 | 0.9 | 3.5 | 0.00 | 0.01 | 0.00 | 36 | 1009.7 |
| 20260504040046 | 57 | 180 | 0.9 | 4.3 | 0.00 | 0.01 | 0.00 | 33 | 1009.5 |
| 20260504034530 | 58 | 180 | 0.9 | 4.3 | 0.00 | 0.01 | 0.00 | 31 | 1009.2 |
| 20260504033027 | 59 | 180 | 0.0 | 4.3 | 0.00 | 0.01 | 0.00 | 28 | 1008.7 |
| 20260504031530 | 60 | 0 | 0.0 | 0.9 | 0.00 | 0.01 | 0.00 | 28 | 1008.2 |
| 20260504030029 | 61 | 0 | 0.0 | 0.9 | 0.00 | 0.01 | 0.00 | 27 | 1008.1 |
| 20260504024528 | 62 | 0 | 0.0 | 1.7 | 0.00 | 0.01 | 0.00 | 27 | 1008.0 |
| 20260504023028 | 63 | 0 | 0.0 | 1.7 | 0.00 | 0.01 | 0.00 | 26 | 1008.0 |
| 20260504021528 | 64 | 10 | 0.9 | 2.6 | 0.00 | 0.01 | 0.00 | 26 | 1007.8 |
| 20260504020027 | 67 | 180 | 1.7 | 4.3 | 0.00 | 0.01 | 0.00 | 24 | 1007.8 |
| 20260504014532 | 69 | 180 | 3.5 | 8.7 | 0.00 | 0.01 | 0.00 | 22 | 1007.7 |
| 20260504013031 | 71 | 180 | 8.7 | 13.0 | 0.00 | 0.01 | 0.00 | 21 | 1007.7 |
| 20260504011528 | 73 | 180 | 4.3 | 10.4 | 0.00 | 0.01 | 0.00 | 20 | 1007.7 |
| 20260504010030 | 74 | 317 | 3.5 | 8.7 | 0.00 | 0.01 | 0.00 | 16 | 1007.8 |
| 20260504004539 | 75 | 180 | 8.7 | 12.2 | 0.00 | 0.01 | 0.00 | 16 | 1008.0 |
| 20260504003029 | 75 | 180 | 7.8 | 11.3 | 0.00 | 0.01 | 0.00 | 15 | 1008.1 |
| 20260504001529 | 75 | 180 | 7.8 | 12.2 | 0.00 | 0.01 | 0.00 | 16 | 1008.2 |
| 20260504000029 | 75 | 326 | 1.7 | 10.4 | 0.00 | 0.01 | 0.00 | 16 | 1008.4 |
| 20260503234533 | 76 | 300 | 7.8 | 12.2 | 0.00 | 0.01 | 0.00 | 16 | 1008.5 |
| 20260503233028 | 75 | 180 | 7.8 | 16.5 | 0.00 | 0.01 | 0.00 | 15 | 1008.6 |
| 20260503231528 | 75 | 180 | 7.8 | 13.9 | 0.00 | 0.01 | 0.00 | 14 | 1008.7 |
| 20260503230030 | 75 | 180 | 8.7 | 14.8 | 0.00 | 0.01 | 0.00 | 16 | 1008.9 |
| 20260503224528 | 74 | 180 | 7.0 | 15.6 | 0.00 | 0.01 | 0.00 | 15 | 1009.0 |
| 20260503223030 | 75 | 180 | 7.8 | 12.2 | 0.00 | 0.01 | 0.00 | 15 | 1009.1 |
| 20260503221529 | 73 | 180 | 3.5 | 13.0 | 0.00 | 0.01 | 0.00 | 16 | 1009.3 |
| 20260503220028 | 74 | 180 | 11.3 | 15.6 | 0.00 | 0.01 | 0.00 | 16 | 1009.6 |
| 20260503214528 | 74 | 180 | 7.8 | 14.8 | 0.00 | 0.01 | 0.00 | 15 | 1009.8 |
| 20260503213029 | 73 | 180 | 9.6 | 13.0 | 0.00 | 0.01 | 0.00 | 15 | 1010.0 |
| 20260503211527 | 73 | 180 | 6.1 | 13.9 | 0.00 | 0.01 | 0.00 | 16 | 1010.2 |
| 20260503210029 | 73 | 180 | 7.8 | 15.6 | 0.00 | 0.01 | 0.00 | 16 | 1010.4 |